Home   Weather   Binningen   Past weeks

Flag for Switzerland Past Weather in Binningen, Basel-Land, Switzerland — Yesterday and Last 2 Weeks

Now
36 °F

Chilly.


Feels Like: 30 °F
Forecast: 33 / 64 °F
Wind: 7 mph from Southeast

Location: Bale-Mulhouse

Current Time: Apr 29, 2017 at 4:02:35 am

Latest Report: Apr 29, 2017 at 3:00 am


Visibility: 6 mi

Pressure: 30.13 "Hg

Humidity: 93%

Dew Point: 34 °F

Location of BinningenLocation

Past Weather in Binningen — Graph

°F

Binningen Temperature Yesterday

Maximum temperature yesterday: 50 °F (at 4:00 pm)
Minimum temperature yesterday: 39 °F (at 3:00 am)
Average temperature yesterday: 43 °F

High & Low Weather Summary for the Past Weeks

 TemperatureHumidityPressure
High69 °F (Apr 24, 5:00 pm)98% (Apr 28, 4:00 am)30.58 "Hg (Apr 28, 4:00 am)
Low25 °F (Apr 20, 7:00 am)19% (Apr 21, 6:00 pm)29.77 "Hg (Apr 25, 1:00 pm)
Average46 °F71%30.15 "Hg
* Reported Apr 14 2:00 am — Apr 29 2:00 am, Binningen, Weather by CustomWeather, © 2017

Note: Actual official high and low records may vary slightly from our data, if they occured in-between our weather recording intervals... More about our weather records

Advertising

Binningen Weather History for the Previous 24 Hours

Scroll right to see more
 ConditionsComfort  
Time TempWeatherWind HumidityBarometerVisibility
2:00 am
Sat, Apr 29
37 °FChilly.5 mph94%30.13 "Hg5 mi
1:00 am37 °FChilly.3 mph95%30.13 "Hg9 mi
12:00 am37 °FPassing clouds.2 mph89%30.13 "Hg12 mi
11:00 pm
Fri, Apr 28
40 °FPassing clouds.3 mph87%30.11 "Hg12 mi
10:00 pm42 °FPassing clouds.3 mph82%30.09 "Hg19 mi
9:00 pm45 °FPassing clouds.5 mph77%30.07 "Hg19 mi
8:00 pm46 °FPartly sunny.6 mph75%30.05 "Hg12 mi
7:00 pm47 °FOvercast.3 mph66%30.05 "Hg12 mi
6:00 pm46 °FOvercast.9 mph75%30.04 "Hg2 mi
5:00 pm48 °FOvercast.10 mph65%30.03 "Hg12 mi
4:00 pm50 °FOvercast.9 mph61%30.02 "Hg12 mi
3:00 pm48 °FPartly sunny.8 mph68%30.02 "Hg11 mi
2:00 pm44 °FLight rain. Overcast.7 mph78%30.03 "Hg2 mi
1:00 pm49 °FOvercast.2 mph57%29.99 "Hg12 mi
12:00 pm49 °FOvercast.5 mph63%29.99 "Hg11 mi
10:00 am43 °FOvercast.8 mph79%29.99 "Hg6 mi
9:00 am42 °FOvercast.7 mph90%29.98 "Hg6 mi
8:00 am40 °FOvercast.5 mph92%29.98 "Hg4 mi
7:00 am40 °FLight rain. Overcast.5 mph92%29.96 "Hg4 mi
6:00 am40 °FLight rain. Overcast.8 mph95%29.95 "Hg2 mi
5:00 am39 °FLight rain. Overcast.2 mph97%29.95 "Hg2 mi
4:00 am39 °FLight rain. Low clouds.3 mph98%29.94 "Hg1 mi
Weather by CustomWeather, © 2017

See weather overviewHow to use our weather pages